Regional Weather Roundup
Issued by NWS

Home | Current Version | Previous Version | Graphics & Text | Print | Product List | Glossary Off
Versions: 1 2 3 4 5 6 7 8 9 10 11 12 13 14 15 16 17 18 19 20 21 22 23 24 25 26 27 28 29 30 31 32 33 34 35 36 37 38 39 40 41 42 43 44 45 46 47 48 49 50

270
ASUS43 KFSD 260802
RWRSD

WEATHER ROUNDUP FOR SOUTH DAKOTA
NATIONAL WEATHER SERVICE SIOUX FALLS SD
300 AM CDT SUN MAR 26 2017

NOTE: "FAIR" INDICATES FEW OR NO CLOUDS BELOW 12,000 FEET WITH NO
SIGNIFICANT WEATHER AND/OR OBSTRUCTIONS TO VISIBILITY.


SDZ001>005-009-010-012>017-260900-
NORTHWEST AND NORTH CENTRAL SOUTH DAKOTA

CITY           SKY/WX    TMP DP  RH WIND       PRES   REMARKS
BUFFALO          N/A     46  34  62 N14       29.82S
FAITH            N/A     39  36  89 MISG      29.87R
MOBRIDGE       CLOUDY    39  34  82 S12       29.91S
$$

SDZ012>016-024>037-041>051-057-063-072>074-260900-
SOUTHWEST AND SOUTH CENTRAL SOUTH DAKOTA

CITY           SKY/WX    TMP DP  RH WIND       PRES   REMARKS
RAPID CTY ARPT CLOUDY    45  31  58 N8        29.84R
PIERRE         CLOUDY    40  36  86 SE13      29.89F
CUSTER         CLOUDY    43  31  62 CALM      29.85R
ELLSWORTH AFB  CLOUDY    45  33  61 N8        29.84R
PHILIP         CLOUDY    38  35  89 E14       29.85R
PINE RIDGE     CLOUDY    50  28  42 VRB3      29.81S
SPEARFISH      MOCLDY    41  32  70 W5        29.87R
WINNER         CLOUDY    41  38  89 S9        29.90S
$$

SDZ004>011-016>023-039-040-260900-
NORTHEAST SOUTH DAKOTA

CITY           SKY/WX    TMP DP  RH WIND       PRES   REMARKS
ABERDEEN       CLOUDY    35  33  92 E5        29.97S FOG
WATERTOWN      CLOUDY    35  35 100 SE5       29.94F FOG
BROOKINGS      CLOUDY    36  35  96 E6        29.93F FOG
SISSETON         N/A     35  35 100 CALM      29.97F
$$

SDZ017-020-022-023-036>040-048>070-260900-
SOUTHEAST SOUTH DAKOTA

CITY           SKY/WX    TMP DP  RH WIND       PRES   REMARKS
SIOUX FALLS    CLOUDY    39  37  92 E7        29.93F
HURON          CLOUDY    39  38  96 SE6       29.94F
CHAMBERLAIN    CLOUDY    41  40  97 SE6       29.92S
MITCHELL       CLOUDY    39  38  96 SE8       29.94F
YANKTON        CLOUDY    37  36  93 CALM      29.92F
$$

ABBREVIATIONS USED IN REMARKS
   TC - TEMPERATURE IN CELSIUS
  WCI - WIND CHILL INDEX
   HX - HEAT INDEX
  VSB - VISIBILITY





USA.gov is the U.S. government's official web portal to all federal, state and local government web resources and services.